Location: Ellerstadt
(49.4644°N, 8.2615°E)
Time: 00:39:37
(UTC+00:00)

IRIDIUM 100 - Pass Details

Date: 02 October 2021
Orbit: 776 x 779 km, 86.4° (Epoch: 15 October)

Event Time Altitude Azimuth Distance (km) Brightness Sun altitude
Exits shadow 00:16:10 15° 13° (NNE) 2,017 ? -42.4°
Drops below altitude 10° 00:17:01 10° 11° (N) 2,340 ? -42.3°
Sets 00:19:24 0° 7° (N) 3,272 ? -42.2°
